Regional Weather Roundup
Issued by NWS Little Rock, AR

Home | Current Version | Previous Version | Graphics & Text | Print | Product List | Glossary On
Versions: 1 2 3 4 5 6 7 8 9 10 11 12 13 14 15 16 17 18 19 20 21 22 23 24 25 26 27 28 29 30 31 32 33 34 35 36 37 38 39 40 41 42 43 44 45 46 47 48 49 50
000
ASUS44 KLZK 160905
RWRLZK

WEATHER ROUNDUP FOR ARKANSAS
NATIONAL WEATHER SERVICE LITTLE ROCK AR
300 AM CST TUE JAN 16 2018

NOTE: "FAIR" INDICATES FEW OR NO CLOUDS BELOW 12,000 FEET WITH NO
SIGNIFICANT WEATHER AND/OR OBSTRUCTIONS TO VISIBILITY.

ARZ001-003-010-029-161000-
NORTHWEST ARKANSAS

CITY           SKY/WX    TMP DP  RH WIND       PRES   REMARKS
FAYETTEVILLE   PTCLDY     6  -2  69 N6        30.66R WCI  -4
FORT SMITH     CLOUDY    15   0  51 N15       30.74R WCI   0
HARRISON       CLOUDY     5  -3  69 N9G21     30.62R WCI  -9
BENTONVILLE    CLOUDY     2  -4  76 N9        30.66F WCI -13
ROGERS         CLOUDY     3  -3  76 NW8       30.64F WCI -10
HIGHFILL       CLOUDY     4  -3  73 N13       30.65S WCI -13
$$

ARZ004-005-016-161000-
NORTH CENTRAL ARKANSAS

CITY           SKY/WX    TMP DP  RH WIND       PRES   REMARKS
BATESVILLE     CLOUDY    15   4  61 NW15G22   30.64R WCI   0
FLIPPIN        CLOUDY     7  -5  57 NW14G20   30.69R WCI -10
$$

ARZ040-041-161000-
WEST CENTRAL ARKANSAS

CITY           SKY/WX    TMP DP  RH WIND       PRES   REMARKS
MENA           MOCLDY    19   5  53 NW9       30.61R WCI   9
MOUNT IDA      CLOUDY    19   5  54 NW10G21   30.60R WCI   7
$$

ARZ009-017-025-026-028-161000-
NORTHEAST ARKANSAS

CITY           SKY/WX    TMP DP  RH WIND       PRES   REMARKS
JONESBORO      CLOUDY    17   4  56 N13       30.63R WCI   4
NEWPORT        FAIR      16   5  62 N21       30.66R WCI  -1
WALNUT RIDGE   FAIR      15   3  59 NW18      30.65R WCI  -2
BLYTHEVILLE    LGT SNOW  15  14  95 N16       30.63R FOG     WCI  -1
$$

ARZ022-023-033-042-044-161000-
CENTRAL ARKANSAS

CITY           SKY/WX    TMP DP  RH WIND       PRES   REMARKS
LITTLE ROCK    LGT SNOW  19  10  68 N15       30.66R FOG     WCI   5
N LITTLE ROCK    N/A     17  11  74 N7        30.67R WCI   8
JACKSONVILLE   MOCLDY    19   8  61 NW10      30.63R WCI   7
SEARCY         CLOUDY    18   6  59 MISG      30.65R
HOT SPRINGS    CLOUDY    22   8  55 N13G20    30.61R WCI  10
RUSSELLVILLE   CLOUDY    18   3  52 N14       30.66R WCI   4
CLINTON        FAIR      14   0  52 NW15G24   30.67R WCI  -1
$$

ARZ036-161000-
EAST ARKANSAS

CITY           SKY/WX    TMP DP  RH WIND       PRES   REMARKS
WEST MEMPHIS   LGT SNOW  18  16  92 N15       30.60R FOG     WCI   4
$$

ARZ050-053-066-070-073-161000-
SOUTHWEST ARKANSAS

CITY           SKY/WX    TMP DP  RH WIND       PRES   REMARKS
ARKADELPHIA    LGT SNOW  24  20  84 NW13      30.65R FOG     WCI  12
CAMDEN         LGT SNOW  25  21  86 N13       30.61R WCI  13
TEXARKANA      LGT SNOW  22  19  89 NW9G18    30.63R FOG     WCI  12
EL DORADO      LGT SNOW  27  27 100 N10       30.58R VSB 3/4 WCI  17
DE QUEEN       CLOUDY    21   4  47 N12G20    30.65R WCI   9
$$

ARZ056-057-069-161000-
SOUTHEAST ARKANSAS

CITY           SKY/WX    TMP DP  RH WIND       PRES   REMARKS
PINE BLUFF     LGT SNOW  22  19  89 N10       30.62R FOG     WCI  11
STUTTGART      LGT SNOW  18  16  92 N22       30.63R FOG     WCI   1
MONTICELLO     LGT SNOW  24  20  84 N8G16     30.57R VSB 1   WCI  15

$$





USA.gov is the U.S. government's official web portal to all federal, state and local government web resources and services.